Weather History for Big Rapids, MI

Change the Weather History Date:

Thursday, October 24, 2013

  Actual Average Record
Temperature  
Mean Temperature 36 °F -  
Max Temperature 42 °F 56 °F 76 °F (1975)
Min Temperature 31 °F 36 °F 23 °F (1981)
Degree Days  
Heating Degree Days 28    
Moisture  
Dew Point 33 °F    
Average Humidity 89    
Maximum Humidity 100    
Minimum Humidity 62    
Precipitation  
Precipitation 0.00 in - - ()
Sea Level Pressure  
Sea Level Pressure 30.01 in    
Wind  
Wind Speed 5 mph (WNW)    
Max Wind Speed 15 mph    
Max Gust Speed 22 mph    
Visibility 10 miles    
Events Rain , Snow    
Averages and records for this station are not official NWS values.
T = Trace of Precipitation, MM = Missing Value Source: NWS Daily Summary

Daily Weather History Graph

Daily Weather History Graph

Search for Another Location

Airport:

Trip Planner

Search our weather history database for the weather conditions in past years. The results will help you decide how hot, cold, wet, or windy it might be!

Date:

Astronomy

Oct. 24, 2013 Rise Set
Actual Time 8:07 AM EDT 6:43 PM EDT
Civil Twilight 7:38 AM EDT 7:13 PM EDT
Nautical Twilight 7:04 AM EDT 7:46 PM EDT
Astronomical Twilight 6:31 AM EDT 8:19 PM EDT
Moon 11:03 PM EDT (10/24) 1:12 PM EDT (10/24)
Length of Visible Light 11h 34m
Length of Day
10h 35m
Waning Gibbous, 71% of the Moon is Illuminated
Oct 24
Waning Gibbous
Oct 26
Last Quarter
Nov 3
New
Nov 10
First Quarter
Nov 17
Full

Hourly Weather History & Observations

Time (EDT) Temp. Windchill Dew Point Humidity Pressure Visibility Wind Dir Wind Speed Gust Speed Precip Events Conditions
12:15 AM 34.7 °F 29.6 °F 34.7 °F 100% 29.90 in 4.0 mi NW 5.8 mph - N/A Snow Light Snow
12:35 AM 34.7 °F 30.6 °F 34.7 °F 100% 29.91 in 10.0 mi WNW 4.6 mph - N/A Snow Light Snow
12:54 AM 34.2 °F - 34.2 °F 100% 29.91 in 2.0 mi Calm Calm - N/A Snow Light Snow
1:15 AM 34.2 °F 30.0 °F 34.2 °F 100% 29.91 in 5.0 mi NW 4.6 mph - N/A Snow Light Snow
1:35 AM 34.3 °F 31.4 °F 34.3 °F 100% 29.90 in 7.0 mi NW 3.5 mph - N/A   Overcast
1:54 AM 34.3 °F 31.4 °F 34.3 °F 100% 29.90 in 10.0 mi WNW 3.5 mph - N/A   Overcast
2:15 AM 34.2 °F 31.2 °F 34.2 °F 100% 29.91 in 10.0 mi West 3.5 mph - N/A   Overcast
2:35 AM 33.8 °F 30.8 °F 33.8 °F 100% 29.91 in 10.0 mi WNW 3.5 mph - N/A   Overcast
2:54 AM 33.8 °F - 33.8 °F 100% 29.91 in 10.0 mi Calm Calm - N/A   Overcast
3:15 AM 33.3 °F - 33.3 °F 100% 29.92 in 10.0 mi Calm Calm - N/A   Overcast
3:35 AM 33.4 °F 30.4 °F 33.4 °F 100% 29.92 in 10.0 mi WNW 3.5 mph - N/A   Overcast
3:54 AM 33.8 °F 28.6 °F 33.8 °F 100% 29.92 in 10.0 mi West 5.8 mph - N/A   Overcast
4:15 AM 33.3 °F 28.9 °F 33.3 °F 100% 29.91 in 10.0 mi WSW 4.6 mph - N/A   Overcast
4:35 AM 33.1 °F 28.7 °F 33.1 °F 100% 29.92 in 10.0 mi West 4.6 mph - N/A   Mostly Cloudy
4:54 AM 32.9 °F 26.7 °F 32.9 °F 100% 29.92 in 10.0 mi West 6.9 mph - N/A   Mostly Cloudy
5:15 AM 33.1 °F 26.1 °F 33.1 °F 100% 29.92 in 10.0 mi WNW 8.1 mph - N/A   Mostly Cloudy
5:35 AM 33.1 °F 26.9 °F 32.9 °F 99% 29.92 in 10.0 mi WNW 6.9 mph - N/A   Scattered Clouds
5:54 AM 32.9 °F 26.7 °F 32.9 °F 100% 29.92 in 10.0 mi West 6.9 mph - N/A   Scattered Clouds
6:15 AM 32.9 °F 25.3 °F 32.9 °F 100% 29.93 in 10.0 mi West 9.2 mph - N/A   Clear
6:35 AM 32.9 °F 25.3 °F 32.9 °F 100% 29.94 in 10.0 mi West 9.2 mph - N/A   Scattered Clouds
6:54 AM 32.5 °F 25.5 °F 32.5 °F 100% 29.94 in 10.0 mi WNW 8.1 mph - N/A   Scattered Clouds
7:15 AM 32.2 °F 26.7 °F 32.2 °F 100% 29.94 in 10.0 mi WNW 5.8 mph - N/A   Clear
7:35 AM 32.0 °F 28.7 °F 32.0 °F 100% 29.94 in 10.0 mi WNW 3.5 mph - N/A   Clear
7:54 AM 32.0 °F - 32.0 °F 100% 29.95 in 10.0 mi Calm Calm - N/A   Clear
8:15 AM 31.6 °F - 31.6 °F 100% 29.95 in 10.0 mi Calm Calm - N/A   Scattered Clouds
8:35 AM 31.8 °F - 31.8 °F 100% 29.96 in 10.0 mi Calm Calm - N/A   Scattered Clouds
8:54 AM 32.0 °F - 32.0 °F 100% 29.97 in 10.0 mi Calm Calm - N/A   Mostly Cloudy
9:15 AM 32.9 °F - 32.9 °F 100% 29.97 in 10.0 mi Calm Calm - N/A   Mostly Cloudy
9:35 AM 33.4 °F 29.1 °F 33.1 °F 99% 29.98 in 10.0 mi WNW 4.6 mph - N/A   Scattered Clouds
9:54 AM 34.3 °F 29.2 °F 33.8 °F 98% 29.99 in 10.0 mi WNW 5.8 mph - N/A   Mostly Cloudy
10:15 AM 34.9 °F 29.9 °F 34.3 °F 98% 30.00 in 10.0 mi WNW 5.8 mph - N/A   Mostly Cloudy
10:35 AM 37.2 °F 31.9 °F 35.6 °F 94% 30.00 in 10.0 mi NW 6.9 mph - N/A   Mostly Cloudy
10:54 AM 37.4 °F 32.1 °F 35.8 °F 94% 30.00 in 10.0 mi WNW 6.9 mph - N/A   Overcast
11:15 AM 37.9 °F 32.1 °F 36.1 °F 93% 30.01 in 10.0 mi NW 8.1 mph - N/A   Overcast
11:35 AM 38.3 °F 32.5 °F 34.2 °F 85% 30.02 in 10.0 mi NW 8.1 mph - N/A   Overcast
11:54 AM 39.2 °F 33.6 °F 33.8 °F 81% 30.02 in 10.0 mi WNW 8.1 mph - N/A   Overcast
12:15 PM 39.6 °F 32.5 °F 33.4 °F 79% 30.02 in 10.0 mi WNW 11.5 mph 16.1 mph N/A   Overcast
12:34 PM 39.9 °F 32.9 °F 33.4 °F 78% 30.03 in 10.0 mi NW 11.5 mph 16.1 mph N/A   Overcast
12:55 PM 40.3 °F 33.9 °F 33.8 °F 78% 30.03 in 10.0 mi NW 10.4 mph 16.1 mph N/A   Overcast
1:15 PM 40.3 °F 33.4 °F 34.5 °F 80% 30.03 in 10.0 mi WNW 11.5 mph - N/A   Overcast
1:34 PM 39.7 °F 34.9 °F 34.2 °F 80% 30.03 in 10.0 mi NW 6.9 mph - N/A   Overcast
1:55 PM 41.7 °F 35.6 °F 34.0 °F 74% 30.03 in 10.0 mi NW 10.4 mph - N/A   Overcast
2:15 PM 40.5 °F 35.1 °F 33.4 °F 76% 30.03 in 7.0 mi WNW 8.1 mph - N/A   Overcast
2:34 PM 39.9 °F 33.9 °F 34.7 °F 82% 30.04 in 4.0 mi WNW 9.2 mph 17.3 mph N/A Rain Light Rain
2:55 PM 40.5 °F 32.8 °F 35.2 °F 82% 30.03 in 10.0 mi WNW 13.8 mph 17.3 mph N/A   Mostly Cloudy
3:14 PM 42.4 °F 39.6 °F 34.0 °F 72% 30.04 in 10.0 mi NW 4.6 mph 18.4 mph N/A   Mostly Cloudy
3:34 PM 42.8 °F 40.1 °F 33.4 °F 70% 30.04 in 10.0 mi NW 4.6 mph - N/A   Mostly Cloudy
3:55 PM 41.4 °F 34.3 °F 30.7 °F 66% 30.05 in 10.0 mi NW 12.7 mph 18.4 mph N/A   Scattered Clouds
4:14 PM 40.5 °F 35.1 °F 30.9 °F 69% 30.05 in 10.0 mi NW 8.1 mph - N/A   Clear
4:34 PM 40.1 °F 32.4 °F 30.4 °F 68% 30.06 in 10.0 mi NW 13.8 mph 18.4 mph N/A   Clear
4:55 PM 39.6 °F 31.3 °F 31.5 °F 73% 30.07 in 7.0 mi North 15.0 mph 21.9 mph N/A   Unknown
5:14 PM 40.1 °F 36.1 °F 31.1 °F 70% 30.07 in 10.0 mi NW 5.8 mph - N/A   Overcast
5:34 PM 40.5 °F 36.5 °F 31.6 °F 71% 30.08 in 10.0 mi NW 5.8 mph - N/A   Overcast
5:55 PM 41.4 °F 36.2 °F 30.4 °F 65% 30.08 in 10.0 mi NW 8.1 mph - N/A   Scattered Clouds
6:14 PM 41.2 °F 36.6 °F 29.1 °F 62% 30.09 in 10.0 mi WNW 6.9 mph 16.1 mph N/A   Clear
6:34 PM 40.1 °F 36.9 °F 29.3 °F 65% 30.09 in 10.0 mi WNW 4.6 mph - N/A   Clear
6:55 PM 38.7 °F 36.3 °F 29.5 °F 70% 30.10 in 10.0 mi West 3.5 mph - N/A   Clear
7:14 PM 37.4 °F 33.8 °F 29.7 °F 74% 30.11 in 10.0 mi West 4.6 mph - N/A   Clear
7:34 PM 36.5 °F 32.7 °F 30.0 °F 77% 30.11 in 10.0 mi West 4.6 mph - N/A   Clear
7:55 PM 35.6 °F 31.7 °F 29.8 °F 80% 30.12 in 10.0 mi West 4.6 mph - N/A   Clear
8:14 PM 34.5 °F 29.4 °F 29.8 °F 83% 30.12 in 10.0 mi West 5.8 mph - N/A   Clear
8:34 PM 35.8 °F 29.4 °F 30.0 °F 80% 30.13 in 10.0 mi WNW 8.1 mph - N/A   Clear
8:55 PM 35.6 °F 28.6 °F 30.7 °F 82% 30.13 in 10.0 mi WNW 9.2 mph - N/A   Mostly Cloudy
9:14 PM 35.8 °F 30.1 °F 31.5 °F 84% 30.13 in 10.0 mi WNW 6.9 mph - N/A   Overcast
9:34 PM 35.6 °F 31.7 °F 31.6 °F 85% 30.13 in 10.0 mi WNW 4.6 mph - N/A   Mostly Cloudy
9:55 PM 35.6 °F 29.9 °F 31.8 °F 86% 30.14 in 10.0 mi WNW 6.9 mph - N/A   Scattered Clouds
10:14 PM 34.9 °F 30.8 °F 31.6 °F 88% 30.14 in 10.0 mi WNW 4.6 mph - N/A   Scattered Clouds
10:34 PM 35.1 °F 31.0 °F 32.0 °F 89% 30.14 in 7.0 mi NW 4.6 mph - N/A Snow Light Snow
10:55 PM 34.2 °F 31.2 °F 33.6 °F 98% 30.14 in 10.0 mi West 3.5 mph - N/A   Scattered Clouds
11:14 PM 33.8 °F - 33.8 °F 100% 30.14 in 10.0 mi Calm Calm - N/A   Scattered Clouds
11:34 PM 32.0 °F - 32.0 °F 100% 30.15 in 10.0 mi Calm Calm - N/A   Scattered Clouds
11:55 PM 32.0 °F - 32.0 °F 100% 30.15 in 10.0 mi Calm Calm - N/A   Scattered Clouds